Temp_Advection
nan nan nan nan nan nan nan nan nan nan nan nan nan nan nan nan nan nan nan nan nan nan nan nan nan nan nan nan nan nan nan nan nan nan nan nan nan nan nan nan nan nan nan
nan 0 -0 -0 0 0 0 0 0 0 0 -0 -0 -0 -0 -0 -0 0 0 0 0 0 0 1 1 1 0 0 0 0 1 0 0 0 -0 -1 -1 -1 -0 0 0 0 nan
nan 0 0 0 0 0 0 0 0 0 0 0 0 -0 -0 -0 -0 -0 -0 0 0 1 1 1 1 0 0 1 1 1 1 1 1 1 1 0 0 -1 -1 -1 -0 0 nan
nan 0 0 0 0 0 0 0 0 0 0 0 0 0 0 -0 0 -0 -1 -0 0 0 1 1 1 1 1 1 1 1 1 1 1 1 1 1 0 -0 -1 -2 -0 -0 nan
nan 0 0 0 0 0 0 0 0 0 0 0 0 -0 -0 0 0 0 -0 -1 0 1 0 0 1 2 2 1 2 2 1 1 1 1 1 1 -0 -0 0 -1 -2 -0 nan
nan 0 0 0 0 0 0 0 0 0 -0 -0 -0 0 0 -0 -1 -0 -0 -1 -1 -0 0 1 2 2 2 2 2 2 2 2 1 1 1 0 -0 -1 -1 0 -1 -1 nan
nan 0 0 0 1 0 0 -0 -0 -0 -0 -0 -0 -0 -1 -0 -0 -1 -0 -1 -1 -1 -0 1 2 2 2 3 3 1 1 1 0 -0 -0 -0 0 -0 -0 -0 -0 -0 nan
nan 1 0 0 0 -0 -0 -0 -0 -1 -1 -1 -1 -1 -1 -1 -1 -1 -1 -0 -0 1 1 1 2 2 3 1 0 -0 -0 -1 -0 0 -0 -0 -0 0 0 0 -0 0 nan
nan 0 -0 -0 -0 -0 -0 -0 -1 -1 -1 -1 -1 -1 -1 -1 -1 -1 -1 -1 -0 1 2 2 1 1 0 -0 -0 0 1 0 -1 -1 -0 -0 -0 -0 -0 -0 -0 0 nan
nan -0 -0 -0 -0 -0 -1 -1 -1 -1 -1 -1 -0 -1 -1 -1 -1 -1 -1 0 1 1 1 0 0 1 1 0 -0 -0 -0 0 0 0 -0 -0 -0 -0 -0 -0 -0 -0 nan
nan -0 -0 -0 -0 -0 -0 -0 -1 -1 -0 -0 -1 -1 -1 -0 -0 -1 -0 1 1 0 0 0 0 -0 0 0 -0 -0 0 0 -0 -0 -0 -0 -0 -0 -0 -0 -0 -0 nan
nan -0 -0 -0 -0 -0 -1 -0 -0 -1 -0 -0 -0 -0 -0 -0 0 -0 0 1 1 0 -0 -0 -0 0 0 0 0 0 0 0 -0 -0 -0 -0 -0 -0 -0 -0 -0 -0 nan
nan -0 -0 -0 -0 0 -0 -0 0 -0 -0 -0 -0 -0 -0 0 0 0 1 1 0 0 0 -0 -0 -0 0 0 0 0 0 0 0 -0 -0 -0 -0 -0 -0 -0 -0 -0 nan
nan -0 -0 -0 -0 0 0 -0 -0 0 0 -0 -0 -1 -0 0 1 1 0 0 0 -0 -0 -0 -0 0 0 0 0 0 -0 -0 0 0 0 -0 -0 -0 -0 -0 -0 -0 nan
nan -0 -0 -0 -0 -0 0 0 -0 -0 -0 -1 -0 -0 -0 0 1 1 0 0 0 -0 -0 -0 0 0 0 0 -0 -0 0 -0 -0 -0 -0 -0 -0 -0 0 -0 0 0 nan
nan -0 -0 -0 0 -0 -0 0 0 -0 -0 -0 -0 0 0 0 0 0 -0 0 0 0 -0 -1 -0 0 0 0 0 -0 -0 -0 -0 -0 -0 -0 -0 -0 -0 0 0 0 nan
nan -1 -1 -0 0 0 0 -0 -0 0 -0 -0 -0 -0 -0 0 0 -0 -0 -0 0 -0 0 0 -0 -0 0 0 0 -0 0 -0 -0 -0 -0 -0 -0 -0 -0 -0 -0 -0 nan
nan -1 -1 -1 -0 0 0 -0 -0 0 0 0 -0 -0 -0 0 0 -0 -0 0 0 -0 -0 -0 -0 -0 -0 0 -0 -0 -0 -0 0 0 0 -0 -0 -0 0 0 -0 -1 nan
nan -1 -1 -0 -0 -0 0 -0 0 -0 -0 -0 0 -0 -0 -0 0 0 -0 -0 -0 -0 -0 -0 -0 -0 -0 -0 -0 -0 -0 -0 -0 -0 0 0 -0 -0 0 0 0 -0 nan
nan 0 -0 -0 -0 0 0 -0 0 0 0 0 0 0 0 -0 -0 -0 0 0 -0 -0 -0 -0 -0 -0 -0 -0 -0 -0 0 -0 -1 -1 -0 0 0 -0 0 0 -0 -0 nan
nan 0 -1 -0 -0 -0 -0 -0 -0 0 0 0 0 -0 -0 -0 -0 0 -0 -0 -0 -0 -0 -0 0 0 -0 -0 -0 0 0 -0 -0 -0 -0 -0 -0 -0 -0 -0 -0 -0 nan
nan -0 -0 -0 -0 -0 -0 -0 0 -0 -0 -0 0 -0 -0 -0 -0 -0 -0 -0 -0 -0 -0 -1 -1 -0 0 -0 -0 0 0 0 -0 -0 -0 0 0 -0 -0 -0 -0 -0 nan
nan -0 -0 0 0 0 0 -0 0 0 -0 -0 -0 -0 -0 0 0 -0 -0 -0 -0 -0 -0 -1 -1 -1 -1 -0 -0 -0 -0 -0 -0 -0 0 0 -0 -0 -0 -0 -0 -0 nan
nan 0 0 -0 0 1 0 -0 -0 0 0 0 -0 -0 -0 -0 0 -0 -0 -0 -0 -0 -0 -0 -0 -1 -1 -1 -0 -0 -1 -0 -0 -0 0 0 -0 -0 -0 -0 -0 0 nan
nan 0 0 0 0 0 0 0 0 0 0 0 -0 -0 -0 -0 -0 0 -0 -0 -0 -0 -0 -0 -0 -0 -1 -1 -0 -0 -0 -0 -0 -0 0 -0 -0 -0 -0 -0 -0 -0 nan
nan nan nan nan nan nan nan nan nan nan nan nan nan nan nan nan nan nan nan nan nan nan nan nan nan nan nan nan nan nan nan nan nan nan nan nan nan nan nan nan nan nan nan
Wind_Speed
6 3 7 10 12 13 9 5 5 6 4 6 9 12 15 18 22 23 23 23 24 26 28 28 27 25 24 25 24 23 23 23 20 19 19 21 22 21 23 22 26 21 20
11 10 8 7 5 4 5 5 6 6 7 10 13 16 19 21 24 27 29 30 31 29 29 31 33 32 31 29 29 29 28 26 23 20 19 18 24 27 26 32 28 29 23
11 7 4 2 4 5 5 8 10 11 11 12 15 19 23 26 28 30 34 36 38 38 36 36 38 38 38 37 36 33 31 30 26 23 18 7 9 24 28 31 34 31 33
8 6 4 7 7 7 8 11 12 14 13 16 18 20 24 29 29 31 35 35 36 39 42 41 40 41 41 37 34 33 32 30 28 24 19 15 14 10 21 36 34 37 35
6 4 6 6 7 8 10 12 13 13 13 14 18 26 33 35 38 40 37 34 34 36 41 43 43 42 39 34 33 32 26 24 24 19 16 16 18 23 26 29 37 37 36
1 3 4 5 7 9 11 10 6 6 12 20 27 32 35 39 41 38 33 32 32 32 32 38 43 42 38 29 26 24 26 21 15 16 18 19 19 21 27 31 35 33 38
6 6 9 9 8 7 3 7 13 18 23 28 35 36 39 37 33 34 36 35 32 33 34 30 35 34 27 32 32 20 17 20 17 20 23 28 30 25 26 28 33 34 35
6 8 4 6 1 5 11 17 24 30 35 39 38 33 29 30 32 34 34 34 31 28 23 19 24 23 27 18 15 18 23 26 27 24 15 20 24 25 25 26 28 35 31
6 8 3 3 6 13 21 25 30 32 33 29 28 29 32 33 32 31 31 31 29 24 23 23 22 13 15 19 29 34 31 14 16 19 22 24 25 26 26 27 29 29 31
7 5 5 8 15 22 26 28 28 29 27 28 30 33 39 35 30 29 28 24 19 18 16 13 15 20 23 18 12 11 12 18 21 24 26 29 30 30 30 30 29 30 33
6 9 12 19 24 27 26 24 26 28 26 27 33 37 40 33 31 28 24 18 13 10 12 16 19 10 8 10 14 17 19 22 26 29 30 31 30 31 31 30 30 31 33
14 19 21 23 26 28 26 29 25 31 31 32 36 42 45 31 26 22 16 14 11 17 11 10 8 8 11 14 18 22 24 26 30 29 29 31 32 32 31 31 33 33 34
20 22 22 25 24 26 28 29 30 32 32 37 43 45 36 23 20 19 16 12 11 10 10 13 15 16 17 20 24 26 28 31 31 31 33 33 31 32 31 31 32 32 33
25 23 24 26 25 26 30 32 33 32 36 40 41 35 23 15 16 13 9 8 5 9 13 15 19 23 26 27 28 31 32 34 33 32 31 31 33 36 38 39 41 42 42
23 19 28 31 27 27 31 31 31 34 37 36 29 23 14 10 12 12 13 12 14 14 14 20 23 24 26 28 30 30 28 29 31 33 36 38 40 42 43 44 46 44 44
22 25 31 31 29 30 32 29 33 32 27 19 17 14 10 9 12 16 13 9 14 18 17 21 25 27 29 29 28 28 29 33 37 39 39 41 40 36 33 31 30 29 30
25 29 31 32 29 30 26 32 31 22 13 12 11 10 11 9 11 11 12 14 17 21 21 24 28 30 30 29 29 30 32 35 39 40 38 35 32 31 32 33 32 32 31
24 27 31 29 30 29 34 30 22 16 15 12 7 6 7 8 10 16 23 23 19 22 25 27 27 28 28 27 29 33 37 37 35 32 30 31 32 31 30 30 31 31 32
17 23 28 27 30 34 29 19 15 7 3 6 9 16 19 19 18 18 18 22 23 23 24 26 26 26 29 32 34 31 31 31 30 28 26 27 28 27 26 28 30 32 34
21 22 23 32 34 19 15 19 19 10 9 21 16 18 18 20 21 22 22 21 23 25 24 24 26 29 32 29 26 25 27 28 27 27 27 27 27 28 25 25 29 33 33
20 23 31 29 18 14 18 19 9 9 16 18 17 18 21 21 21 21 22 24 23 23 24 27 29 28 26 25 24 24 21 23 27 27 27 30 29 27 26 27 29 29 27
26 30 26 17 14 16 14 13 10 16 17 17 20 21 20 20 21 22 22 21 23 25 28 29 29 29 25 23 26 20 18 21 22 24 26 30 27 25 27 25 23 23 22
28 26 22 16 15 15 13 14 14 17 19 19 19 20 21 21 21 20 21 23 23 25 26 27 30 32 29 29 24 19 21 22 18 19 22 25 24 24 19 17 18 18 17
27 25 22 22 18 17 11 14 16 15 17 17 19 22 22 21 19 19 22 22 22 25 26 28 30 30 32 30 23 26 27 19 18 21 22 25 18 13 11 13 11 8 7
24 22 22 16 14 11 12 15 14 15 15 17 20 23 22 20 20 20 23 22 21 23 25 27 26 29 31 27 25 26 24 18 20 19 15 19 17 15 13 13 14 12 9
20 20 18 16 16 17 18 18 15 15 16 18 21 23 22 22 22 23 24 20 21 22 22 24 21 24 23 22 24 23 17 16 16 13 14 18 17 18 18 17 16 16 15
Wind_Direction
142 239 259 230 216 203 220 263 309 321 336 352 347 340 337 326 314 305 299 294 290 289 284 282 280 276 271 271 267 267 263 267 273 278 288 295 297 302 302 301 309 311 311
117 106 102 119 164 235 259 280 287 322 319 331 336 329 323 316 310 310 301 291 284 281 281 274 271 270 267 263 261 260 258 259 263 263 279 292 286 290 301 303 305 310 311
122 118 127 198 248 284 297 292 281 283 299 308 312 315 314 307 305 311 305 300 295 283 272 266 263 263 263 260 258 251 245 250 250 250 255 261 258 287 302 299 301 303 304
142 156 206 238 251 255 265 270 272 278 289 300 307 310 309 304 301 303 309 301 294 288 278 271 266 262 257 254 247 242 235 233 234 234 237 245 265 293 301 301 298 300 300
165 189 235 243 243 253 260 261 261 273 291 301 306 311 311 309 313 315 312 306 304 297 278 268 264 256 247 245 239 235 224 222 227 225 239 257 284 296 298 301 294 295 301
246 274 207 228 256 244 245 253 266 284 298 305 309 312 309 309 309 310 309 305 302 296 295 275 254 241 239 234 217 210 215 219 235 245 255 272 289 296 299 299 299 297 299
272 247 248 253 226 220 262 313 319 320 317 313 311 308 310 311 308 307 309 312 309 302 293 273 244 230 223 221 211 213 238 246 258 275 276 273 283 289 287 290 291 296 299
247 249 244 175 206 323 329 327 322 319 316 313 312 313 315 312 308 310 311 310 307 296 269 222 204 204 204 204 243 248 301 294 306 306 300 290 285 284 285 289 294 298 294
104 123 87 343 332 329 329 324 319 316 319 323 324 323 324 322 314 313 311 307 304 290 240 211 195 202 228 288 304 312 320 327 306 295 292 289 288 286 286 284 287 289 290
59 48 10 340 332 330 328 323 321 324 325 324 324 322 327 326 314 308 303 299 280 233 207 214 251 267 308 314 314 310 297 288 288 292 292 291 291 290 288 286 282 282 285
350 340 334 333 328 326 324 329 326 328 324 321 322 324 328 322 304 300 289 269 215 212 269 282 305 319 313 307 297 296 295 293 293 294 295 293 294 292 289 286 282 280 281
331 323 320 318 330 327 330 333 333 331 327 323 322 325 325 314 284 276 262 238 249 286 292 307 310 309 305 300 298 298 298 299 300 299 296 295 297 291 289 287 286 284 282
313 308 310 325 326 325 331 337 330 329 327 322 322 322 325 302 259 250 241 248 264 277 296 317 317 313 307 301 299 299 299 301 300 298 296 296 292 290 289 286 286 284 282
310 299 308 325 325 327 331 336 334 325 320 320 322 325 324 278 234 230 233 228 247 309 321 300 305 308 307 302 296 298 300 298 297 295 292 288 286 286 287 285 284 283 281
314 305 319 323 326 322 328 323 323 319 318 321 323 323 307 257 227 223 241 250 276 318 286 279 282 289 294 298 300 302 300 297 294 291 290 289 289 287 286 284 283 282 280
315 316 319 326 324 319 316 316 319 317 321 326 332 320 285 248 255 265 304 282 277 277 292 287 293 301 304 307 308 306 301 298 297 297 297 296 295 292 288 283 277 275 275
314 321 324 322 320 317 317 321 318 315 322 326 328 339 327 327 319 335 339 328 310 292 291 300 304 306 308 308 306 304 302 301 300 300 301 301 297 296 293 289 284 279 274
326 331 327 325 314 316 317 317 314 300 296 298 333 343 352 339 328 315 305 306 303 305 305 305 307 309 311 311 308 306 303 301 300 302 301 300 301 299 299 295 291 288 286
337 328 314 311 317 320 314 320 313 333 14 33 355 341 335 324 315 312 308 306 307 309 312 315 315 315 314 313 312 309 305 303 304 306 308 308 306 305 301 292 286 284 282
318 305 308 315 319 313 297 306 314 311 318 341 333 320 314 312 314 315 314 314 314 315 316 315 314 315 315 316 316 312 307 309 311 313 316 317 312 309 302 297 296 293 289
303 316 322 323 321 314 310 316 329 311 317 319 317 315 314 317 317 315 313 315 318 317 315 314 318 322 323 320 320 316 312 311 314 315 319 322 316 310 302 297 290 292 291
324 325 326 326 321 320 310 331 304 308 318 318 319 318 320 320 318 316 318 319 319 317 319 320 322 326 327 327 328 324 322 318 314 320 319 317 317 309 304 298 291 293 286
328 329 323 320 314 305 289 304 317 317 318 320 324 326 326 324 322 322 324 323 320 322 325 325 327 328 331 332 330 323 323 325 323 315 317 326 321 318 316 310 304 299 291
328 319 316 321 318 293 318 314 312 312 318 323 329 332 330 326 323 321 330 328 324 324 327 328 328 325 325 330 333 332 327 330 320 316 314 327 333 331 337 344 341 337 326
323 320 323 317 326 310 319 310 307 319 319 327 332 333 327 323 319 320 330 329 323 324 326 327 323 319 323 332 326 322 327 320 314 322 323 343 356 359 359 9 10 358 339
319 323 325 319 321 319 306 307 311 317 317 321 327 330 325 321 317 318 323 327 325 325 325 327 320 322 325 324 323 326 326 314 321 326 348 357 6 12 11 6 10 13 11
Height
1520 1522 1521 1521 1524 1527 1529 1530 1529 1528 1527 1525 1524 1523 1521 1520 1518 1516 1514 1513 1511 1509 1506 1505 1504 1503 1501 1501 1501 1501 1500 1499 1498 1496 1495 1494 1493 1493 1493 1492 1491 1489 1489
1521 1523 1524 1525 1527 1529 1529 1529 1529 1527 1526 1524 1522 1520 1518 1516 1513 1511 1508 1506 1504 1503 1500 1498 1497 1496 1495 1494 1493 1492 1492 1493 1493 1491 1490 1488 1488 1488 1488 1487 1485 1485 1484
1522 1524 1525 1526 1527 1527 1527 1527 1526 1525 1523 1521 1519 1516 1514 1511 1509 1507 1502 1499 1495 1493 1491 1490 1489 1489 1488 1487 1486 1485 1485 1487 1487 1485 1486 1484 1482 1481 1480 1479 1479 1479 1478
1523 1523 1524 1525 1525 1525 1525 1525 1524 1522 1520 1517 1514 1511 1508 1504 1502 1498 1495 1492 1489 1486 1484 1483 1481 1481 1481 1482 1482 1481 1479 1478 1479 1479 1479 1479 1478 1477 1472 1471 1469 1471 1470
1523 1523 1522 1523 1522 1522 1522 1521 1520 1519 1517 1515 1512 1507 1503 1499 1493 1489 1485 1482 1479 1477 1475 1474 1473 1474 1476 1476 1475 1476 1475 1474 1472 1472 1473 1473 1473 1472 1471 1463 1462 1462 1463
1522 1521 1522 1521 1520 1519 1518 1517 1517 1514 1512 1509 1505 1501 1497 1492 1486 1482 1477 1474 1471 1468 1466 1463 1463 1464 1466 1466 1470 1470 1465 1465 1467 1464 1464 1466 1467 1464 1466 1462 1458 1456 1455
1521 1521 1520 1519 1517 1517 1517 1516 1514 1511 1507 1504 1500 1496 1491 1485 1481 1476 1471 1467 1463 1459 1456 1454 1454 1457 1456 1459 1459 1459 1460 1456 1455 1457 1458 1457 1458 1461 1460 1459 1455 1450 1449
1521 1520 1519 1518 1518 1518 1516 1513 1509 1504 1500 1496 1492 1488 1485 1481 1477 1472 1467 1462 1457 1452 1450 1449 1449 1449 1449 1454 1454 1451 1451 1448 1449 1450 1453 1453 1454 1454 1453 1452 1450 1443 1443
1521 1521 1520 1520 1518 1516 1513 1508 1503 1498 1495 1491 1487 1483 1479 1476 1471 1467 1462 1457 1453 1450 1448 1448 1447 1448 1449 1450 1447 1443 1441 1444 1447 1447 1448 1447 1448 1447 1445 1445 1444 1442 1436
1524 1523 1521 1519 1516 1513 1509 1504 1499 1495 1491 1486 1483 1479 1474 1468 1464 1460 1457 1453 1450 1447 1447 1449 1448 1447 1448 1447 1447 1445 1445 1445 1445 1444 1442 1440 1439 1438 1437 1436 1436 1434 1432
1524 1522 1520 1517 1513 1510 1505 1500 1495 1490 1485 1480 1476 1471 1466 1461 1456 1455 1453 1450 1450 1450 1449 1447 1445 1445 1445 1445 1444 1442 1441 1440 1439 1437 1434 1432 1431 1429 1428 1428 1427 1426 1425
1523 1520 1517 1514 1510 1507 1500 1494 1490 1486 1482 1477 1470 1465 1460 1455 1452 1450 1449 1450 1450 1449 1448 1446 1443 1442 1442 1441 1439 1437 1435 1433 1431 1429 1428 1425 1424 1421 1421 1420 1418 1417 1417
1519 1516 1513 1510 1505 1503 1499 1490 1485 1481 1477 1472 1466 1459 1453 1449 1450 1451 1448 1448 1449 1447 1446 1444 1443 1441 1438 1436 1434 1431 1429 1426 1424 1422 1419 1417 1416 1414 1412 1411 1409 1408 1407
1515 1511 1510 1505 1501 1497 1492 1483 1480 1476 1470 1465 1459 1454 1449 1445 1447 1448 1448 1446 1445 1445 1443 1442 1439 1436 1434 1431 1427 1425 1422 1419 1416 1414 1412 1410 1408 1405 1403 1401 1399 1398 1396
1509 1506 1504 1499 1493 1489 1484 1479 1475 1470 1465 1459 1454 1450 1447 1445 1446 1444 1444 1443 1442 1441 1439 1436 1434 1430 1427 1424 1420 1417 1414 1411 1408 1406 1403 1400 1398 1395 1392 1389 1386 1385 1383
1504 1502 1498 1493 1487 1483 1479 1475 1471 1465 1461 1456 1452 1450 1448 1445 1444 1443 1442 1440 1438 1435 1434 1432 1429 1424 1420 1416 1413 1409 1406 1403 1399 1394 1391 1388 1385 1382 1380 1378 1377 1376 1374
1501 1498 1494 1490 1486 1481 1476 1471 1466 1461 1457 1454 1450 1449 1448 1444 1444 1443 1440 1438 1437 1434 1430 1427 1423 1418 1414 1410 1406 1403 1398 1394 1390 1385 1381 1377 1374 1372 1370 1367 1366 1365 1365
1499 1495 1491 1484 1481 1477 1472 1466 1461 1458 1456 1452 1450 1448 1444 1443 1442 1441 1438 1434 1431 1428 1424 1421 1416 1412 1408 1404 1400 1396 1390 1385 1381 1377 1374 1370 1366 1364 1361 1358 1355 1354 1353
1492 1492 1490 1482 1477 1471 1467 1463 1458 1456 1453 1452 1450 1447 1446 1443 1438 1435 1432 1429 1426 1422 1419 1414 1410 1406 1402 1398 1393 1387 1382 1377 1373 1370 1367 1364 1359 1357 1354 1350 1347 1345 1343
1491 1487 1481 1476 1473 1468 1464 1461 1457 1454 1452 1450 1448 1446 1443 1439 1434 1431 1428 1424 1421 1417 1413 1409 1405 1401 1396 1391 1386 1382 1376 1371 1367 1364 1360 1357 1353 1349 1346 1343 1339 1335 1333
1483 1481 1476 1471 1467 1466 1463 1459 1454 1456 1453 1449 1446 1444 1441 1437 1432 1428 1424 1420 1416 1413 1409 1404 1400 1396 1391 1386 1381 1376 1372 1367 1362 1358 1354 1350 1346 1342 1339 1336 1332 1328 1326
1484 1479 1471 1466 1464 1463 1462 1457 1454 1452 1450 1448 1444 1441 1437 1433 1429 1425 1421 1417 1413 1409 1404 1399 1394 1390 1386 1382 1376 1371 1368 1364 1359 1354 1350 1346 1340 1335 1331 1327 1325 1322 1320
1477 1472 1468 1463 1461 1459 1458 1455 1453 1451 1448 1445 1441 1438 1434 1430 1425 1421 1417 1414 1409 1405 1400 1395 1390 1384 1380 1376 1372 1368 1363 1360 1356 1352 1347 1342 1336 1330 1326 1322 1319 1315 1313
1471 1469 1466 1460 1456 1454 1453 1452 1450 1447 1445 1442 1439 1435 1431 1427 1423 1419 1415 1411 1406 1402 1397 1392 1387 1381 1377 1372 1367 1363 1359 1355 1352 1349 1345 1339 1333 1328 1324 1320 1316 1313 1310
1468 1466 1462 1458 1454 1453 1450 1448 1446 1444 1442 1439 1436 1432 1428 1424 1420 1417 1413 1408 1405 1400 1394 1390 1385 1379 1373 1369 1366 1361 1356 1353 1350 1346 1342 1337 1332 1327 1323 1319 1315 1311 1309
1464 1462 1461 1456 1454 1450 1447 1445 1443 1441 1439 1436 1433 1429 1425 1421 1417 1413 1409 1407 1402 1398 1393 1389 1384 1378 1373 1368 1362 1357 1354 1351 1347 1344 1341 1336 1332 1327 1322 1318 1314 1311 1308